owner,sensor,date,latitude,longitude,vertical_datum,sea_water_practical_salinity,qcFlag 
DISL,ioos:station:DISL:MHPA:1,2008-03-01T00:00:00Z,30.6671,-87.9365,4.299,0.23,1111122 
DISL,ioos:station:DISL:MHPA:1,2008-03-01T00:30:00Z,30.6671,-87.9365,4.211,0.23,1111122 
DISL,ioos:station:DISL:MHPA:1,2008-03-01T01:00:00Z,30.6671,-87.9365,4.193,0.23,1111122 
DISL,ioos:station:DISL:MHPA:1,2008-03-01T01:30:00Z,30.6671,-87.9365,4.032,0.23,1111122 
DISL,ioos:station:DISL:MHPA:1,2008-03-01T02:00:00Z,30.6671,-87.9365,3.922,0.23,1111122 
DISL,ioos:station:DISL:MHPA:1,2008-03-01T02:30:00Z,30.6671,-87.9365,3.862,0.24,1111122 
DISL,ioos:station:DISL:MHPA:1,2008-03-01T03:00:00Z,30.6671,-87.9365,3.758,0.23,1111122 
DISL,ioos:station:DISL:MHPA:1,2008-03-01T03:30:00Z,30.6671,-87.9365,3.635,0.22,1111122 
DISL,ioos:station:DISL:MHPA:1,2008-03-01T04:00:00Z,30.6671,-87.9365,3.536,0.23,1111122 
DISL,ioos:station:DISL:MHPA:1,2008-03-01T04:30:00Z,30.6671,-87.9365,3.452,0.23,1111122 
DISL,ioos:station:DISL:MHPA:1,2008-03-01T05:00:00Z,30.6671,-87.9365,3.326,0.23,1111122 
DISL,ioos:station:DISL:MHPA:1,2008-03-01T05:30:00Z,30.6671,-87.9365,3.198,0.23,1111122 
DISL,ioos:station:DISL:MHPA:1,2008-03-01T06:00:00Z,30.6671,-87.9365,3.106,0.22,1111122 
DISL,ioos:station:DISL:MHPA:1,2008-03-01T06:30:00Z,30.6671,-87.9365,2.998,0.22,1111122 
DISL,ioos:station:DISL:MHPA:1,2008-03-01T07:00:00Z,30.6671,-87.9365,2.894,0.22,1111122 
DISL,ioos:station:DISL:MHPA:1,2008-03-01T07:30:00Z,30.6671,-87.9365,2.784,0.22,1111122 
DISL,ioos:station:DISL:MHPA:1,2008-03-01T08:00:00Z,30.6671,-87.9365,2.676,0.22,1111122 
DISL,ioos:station:DISL:MHPA:1,2008-03-01T08:30:00Z,30.6671,-87.9365,2.577,0.22,1111122 
DISL,ioos:station:DISL:MHPA:1,2008-03-01T09:00:00Z,30.6671,-87.9365,2.494,0.22,1111122 
DISL,ioos:station:DISL:MHPA:1,2008-03-01T09:30:00Z,30.6671,-87.9365,2.42,0.22,1111122 
DISL,ioos:station:DISL:MHPA:1,2008-03-01T10:00:00Z,30.6671,-87.9365,2.342,0.22,1111122 
DISL,ioos:station:DISL:MHPA:1,2008-03-01T10:30:00Z,30.6671,-87.9365,2.271,0.22,1111122 
DISL,ioos:station:DISL:MHPA:1,2008-03-01T11:00:00Z,30.6671,-87.9365,2.196,0.21,1111122 
DISL,ioos:station:DISL:MHPA:1,2008-03-01T11:30:00Z,30.6671,-87.9365,2.124,0.21,1111122 
DISL,ioos:station:DISL:MHPA:1,2008-03-01T12:00:00Z,30.6671,-87.9365,2.067,0.2,1111122 
DISL,ioos:station:DISL:MHPA:1,2008-03-01T12:30:00Z,30.6671,-87.9365,2.016,0.2,1111122 
DISL,ioos:station:DISL:MHPA:1,2008-03-01T13:00:00Z,30.6671,-87.9365,1.979,0.2,1111122 
DISL,ioos:station:DISL:MHPA:1,2008-03-01T13:30:00Z,30.6671,-87.9365,1.964,0.2,1111122 
DISL,ioos:station:DISL:MHPA:1,2008-03-01T14:00:00Z,30.6671,-87.9365,1.974,0.19,1111122 
DISL,ioos:station:DISL:MHPA:1,2008-03-01T14:30:00Z,30.6671,-87.9365,1.992,0.19,1111122 
DISL,ioos:station:DISL:MHPA:1,2008-03-01T15:00:00Z,30.6671,-87.9365,2.076,0.18,1111122 
DISL,ioos:station:DISL:MHPA:1,2008-03-01T15:30:00Z,30.6671,-87.9365,2.257,0.17,1111122 
DISL,ioos:station:DISL:MHPA:1,2008-03-01T16:00:00Z,30.6671,-87.9365,2.375,0.17,1111122 
DISL,ioos:station:DISL:MHPA:1,2008-03-01T16:30:00Z,30.6671,-87.9365,2.504,0.16,1111122 
DISL,ioos:station:DISL:MHPA:1,2008-03-01T17:00:00Z,30.6671,-87.9365,2.647,0.16,1111122 
DISL,ioos:station:DISL:MHPA:1,2008-03-01T17:30:00Z,30.6671,-87.9365,2.797,0.17,1111122 
DISL,ioos:station:DISL:MHPA:1,2008-03-01T18:00:00Z,30.6671,-87.9365,2.921,0.17,1111122 
DISL,ioos:station:DISL:MHPA:1,2008-03-01T18:30:00Z,30.6671,-87.9365,3.075,0.18,1111122 
DISL,ioos:station:DISL:MHPA:1,2008-03-01T19:00:00Z,30.6671,-87.9365,3.175,0.18,1111122 
DISL,ioos:station:DISL:MHPA:1,2008-03-01T19:30:00Z,30.6671,-87.9365,3.259,0.17,1111122 
DISL,ioos:station:DISL:MHPA:1,2008-03-01T20:00:00Z,30.6671,-87.9365,3.356,0.17,1111122 
DISL,ioos:station:DISL:MHPA:1,2008-03-01T20:30:00Z,30.6671,-87.9365,3.431,0.18,1111122 
DISL,ioos:station:DISL:MHPA:1,2008-03-01T21:00:00Z,30.6671,-87.9365,3.494,0.18,1111122 
DISL,ioos:station:DISL:MHPA:1,2008-03-01T21:30:00Z,30.6671,-87.9365,3.58,0.17,1111122 
DISL,ioos:station:DISL:MHPA:1,2008-03-01T22:00:00Z,30.6671,-87.9365,3.734,0.18,1111122 
DISL,ioos:station:DISL:MHPA:1,2008-03-01T22:30:00Z,30.6671,-87.9365,3.821,0.18,1111122 
DISL,ioos:station:DISL:MHPA:1,2008-03-01T23:00:00Z,30.6671,-87.9365,4.066,0.19,1111122 
DISL,ioos:station:DISL:MHPA:1,2008-03-01T23:30:00Z,30.6671,-87.9365,4.064,0.2,1111122 
DISL,ioos:station:DISL:MHPA:1,2008-03-02T00:00:00Z,30.6671,-87.9365,4.054,0.2,1111122 
DISL,ioos:station:DISL:MHPA:1,2008-03-02T00:30:00Z,30.6671,-87.9365,4.068,0.2,1111122 
DISL,ioos:station:DISL:MHPA:1,2008-03-02T01:00:00Z,30.6671,-87.9365,4.049,0.19,1111122 
DISL,ioos:station:DISL:MHPA:1,2008-03-02T01:30:00Z,30.6671,-87.9365,3.987,0.19,1111122 
DISL,ioos:station:DISL:MHPA:1,2008-03-02T02:00:00Z,30.6671,-87.9365,3.851,0.18,1111122 
DISL,ioos:station:DISL:MHPA:1,2008-03-02T02:30:00Z,30.6671,-87.9365,3.767,0.18,1111122 
DISL,ioos:station:DISL:MHPA:1,2008-03-02T03:00:00Z,30.6671,-87.9365,3.652,0.18,1111122 
DISL,ioos:station:DISL:MHPA:1,2008-03-02T03:30:00Z,30.6671,-87.9365,3.547,0.18,1111122 
DISL,ioos:station:DISL:MHPA:1,2008-03-02T04:00:00Z,30.6671,-87.9365,3.43,0.19,1111122 
DISL,ioos:station:DISL:MHPA:1,2008-03-02T04:30:00Z,30.6671,-87.9365,3.295,0.18,1111122 
DISL,ioos:station:DISL:MHPA:1,2008-03-02T05:00:00Z,30.6671,-87.9365,3.178,0.13,1111122 
DISL,ioos:station:DISL:MHPA:1,2008-03-02T05:30:00Z,30.6671,-87.9365,3.077,0.12,1111122 
DISL,ioos:station:DISL:MHPA:1,2008-03-02T06:00:00Z,30.6671,-87.9365,2.96,0.12,1111122 
DISL,ioos:station:DISL:MHPA:1,2008-03-02T06:30:00Z,30.6671,-87.9365,2.841,0.13,1111122 
DISL,ioos:station:DISL:MHPA:1,2008-03-02T07:00:00Z,30.6671,-87.9365,2.744,0.13,1111122 
DISL,ioos:station:DISL:MHPA:1,2008-03-02T07:30:00Z,30.6671,-87.9365,2.654,0.13,1111122 
DISL,ioos:station:DISL:MHPA:1,2008-03-02T08:00:00Z,30.6671,-87.9365,2.553,0.12,1111122 
DISL,ioos:station:DISL:MHPA:1,2008-03-02T08:30:00Z,30.6671,-87.9365,2.453,0.12,1111122 
DISL,ioos:station:DISL:MHPA:1,2008-03-02T09:00:00Z,30.6671,-87.9365,2.362,0.12,1111122 
DISL,ioos:station:DISL:MHPA:1,2008-03-02T09:30:00Z,30.6671,-87.9365,2.277,0.12,1111122 
DISL,ioos:station:DISL:MHPA:1,2008-03-02T10:00:00Z,30.6671,-87.9365,2.202,0.12,1111122 
DISL,ioos:station:DISL:MHPA:1,2008-03-02T10:30:00Z,30.6671,-87.9365,2.129,0.13,1111122 
DISL,ioos:station:DISL:MHPA:1,2008-03-02T11:00:00Z,30.6671,-87.9365,2.058,0.13,1111122 
DISL,ioos:station:DISL:MHPA:1,2008-03-02T11:30:00Z,30.6671,-87.9365,2.002,0.14,1111122 
DISL,ioos:station:DISL:MHPA:1,2008-03-02T12:00:00Z,30.6671,-87.9365,1.959,0.14,1111122 
DISL,ioos:station:DISL:MHPA:1,2008-03-02T12:30:00Z,30.6671,-87.9365,1.917,0.14,1111122 
DISL,ioos:station:DISL:MHPA:1,2008-03-02T13:00:00Z,30.6671,-87.9365,1.894,0.14,1111122 
DISL,ioos:station:DISL:MHPA:1,2008-03-02T13:30:00Z,30.6671,-87.9365,1.901,0.14,1111122 
DISL,ioos:station:DISL:MHPA:1,2008-03-02T14:00:00Z,30.6671,-87.9365,1.912,0.14,1111122 
DISL,ioos:station:DISL:MHPA:1,2008-03-02T14:30:00Z,30.6671,-87.9365,1.928,0.14,1111122 
DISL,ioos:station:DISL:MHPA:1,2008-03-02T15:00:00Z,30.6671,-87.9365,2.046,0.14,1111122 
DISL,ioos:station:DISL:MHPA:1,2008-03-02T15:30:00Z,30.6671,-87.9365,2.221,0.14,1111122 
DISL,ioos:station:DISL:MHPA:1,2008-03-02T16:00:00Z,30.6671,-87.9365,2.362,0.14,1111122 
DISL,ioos:station:DISL:MHPA:1,2008-03-02T16:30:00Z,30.6671,-87.9365,2.492,0.14,1111122 
DISL,ioos:station:DISL:MHPA:1,2008-03-02T17:00:00Z,30.6671,-87.9365,2.655,0.14,1111122 
DISL,ioos:station:DISL:MHPA:1,2008-03-02T17:30:00Z,30.6671,-87.9365,2.783,0.14,1111122 
DISL,ioos:station:DISL:MHPA:1,2008-03-02T18:00:00Z,30.6671,-87.9365,2.902,0.14,1111122 
DISL,ioos:station:DISL:MHPA:1,2008-03-02T18:30:00Z,30.6671,-87.9365,3.028,0.14,1111122 
DISL,ioos:station:DISL:MHPA:1,2008-03-02T19:00:00Z,30.6671,-87.9365,3.143,0.15,1111122 
DISL,ioos:station:DISL:MHPA:1,2008-03-02T19:30:00Z,30.6671,-87.9365,3.335,0.15,1111122 
DISL,ioos:station:DISL:MHPA:1,2008-03-02T20:00:00Z,30.6671,-87.9365,3.588,0.15,1111122 
DISL,ioos:station:DISL:MHPA:1,2008-03-02T20:30:00Z,30.6671,-87.9365,3.736,0.15,1111122 
DISL,ioos:station:DISL:MHPA:1,2008-03-02T21:00:00Z,30.6671,-87.9365,3.759,0.16,1111122 
DISL,ioos:station:DISL:MHPA:1,2008-03-02T21:30:00Z,30.6671,-87.9365,3.725,0.16,1111122 
DISL,ioos:station:DISL:MHPA:1,2008-03-02T22:00:00Z,30.6671,-87.9365,3.817,0.16,1111122 
DISL,ioos:station:DISL:MHPA:1,2008-03-02T22:30:00Z,30.6671,-87.9365,3.886,0.16,1111122 
DISL,ioos:station:DISL:MHPA:1,2008-03-02T23:00:00Z,30.6671,-87.9365,3.911,0.16,1111122 
DISL,ioos:station:DISL:MHPA:1,2008-03-02T23:30:00Z,30.6671,-87.9365,4.032,0.17,1111122 
DISL,ioos:station:DISL:MHPA:1,2008-03-03T00:00:00Z,30.6671,-87.9365,4.054,0.15,1111122 
DISL,ioos:station:DISL:MHPA:1,2008-03-03T00:30:00Z,30.6671,-87.9365,4.116,0.15,1111122 
DISL,ioos:station:DISL:MHPA:1,2008-03-03T01:00:00Z,30.6671,-87.9365,4.138,0.15,1111122 
DISL,ioos:station:DISL:MHPA:1,2008-03-03T01:30:00Z,30.6671,-87.9365,4.103,0.15,1111122 
DISL,ioos:station:DISL:MHPA:1,2008-03-03T02:00:00Z,30.6671,-87.9365,4.105,0.15,1111122 
DISL,ioos:station:DISL:MHPA:1,2008-03-03T02:30:00Z,30.6671,-87.9365,4.141,0.16,1111122 
DISL,ioos:station:DISL:MHPA:1,2008-03-03T03:00:00Z,30.6671,-87.9365,4.081,0.16,1111122 
DISL,ioos:station:DISL:MHPA:1,2008-03-03T03:30:00Z,30.6671,-87.9365,4.085,0.16,1111122 
DISL,ioos:station:DISL:MHPA:1,2008-03-03T04:00:00Z,30.6671,-87.9365,4.019,0.16,1111122 
DISL,ioos:station:DISL:MHPA:1,2008-03-03T04:30:00Z,30.6671,-87.9365,3.963,0.16,1111122 
DISL,ioos:station:DISL:MHPA:1,2008-03-03T05:00:00Z,30.6671,-87.9365,3.886,0.16,1111122 
DISL,ioos:station:DISL:MHPA:1,2008-03-03T05:30:00Z,30.6671,-87.9365,3.779,0.16,1111122 
DISL,ioos:station:DISL:MHPA:1,2008-03-03T06:00:00Z,30.6671,-87.9365,3.637,0.16,1111122 
DISL,ioos:station:DISL:MHPA:1,2008-03-03T06:30:00Z,30.6671,-87.9365,3.531,0.16,1111122 
DISL,ioos:station:DISL:MHPA:1,2008-03-03T07:00:00Z,30.6671,-87.9365,3.427,0.16,1111122 
DISL,ioos:station:DISL:MHPA:1,2008-03-03T07:30:00Z,30.6671,-87.9365,3.312,0.16,1111122 
DISL,ioos:station:DISL:MHPA:1,2008-03-03T08:00:00Z,30.6671,-87.9365,3.203,0.16,1111122 
DISL,ioos:station:DISL:MHPA:1,2008-03-03T08:30:00Z,30.6671,-87.9365,3.108,0.15,1111122 
DISL,ioos:station:DISL:MHPA:1,2008-03-03T09:00:00Z,30.6671,-87.9365,3.013,0.15,1111122 
DISL,ioos:station:DISL:MHPA:1,2008-03-03T09:30:00Z,30.6671,-87.9365,2.938,0.15,1111122 
DISL,ioos:station:DISL:MHPA:1,2008-03-03T10:00:00Z,30.6671,-87.9365,2.848,0.16,1111122 
DISL,ioos:station:DISL:MHPA:1,2008-03-03T10:30:00Z,30.6671,-87.9365,2.766,0.15,1111122 
DISL,ioos:station:DISL:MHPA:1,2008-03-03T11:00:00Z,30.6671,-87.9365,2.694,0.15,1111122 
DISL,ioos:station:DISL:MHPA:1,2008-03-03T11:30:00Z,30.6671,-87.9365,2.626,0.15,1111122 
DISL,ioos:station:DISL:MHPA:1,2008-03-03T12:00:00Z,30.6671,-87.9365,2.588,0.15,1111122 
DISL,ioos:station:DISL:MHPA:1,2008-03-03T12:30:00Z,30.6671,-87.9365,2.585,0.15,1111122 
DISL,ioos:station:DISL:MHPA:1,2008-03-03T13:00:00Z,30.6671,-87.9365,2.59,0.15,1111122 
DISL,ioos:station:DISL:MHPA:1,2008-03-03T13:30:00Z,30.6671,-87.9365,2.586,0.15,1111122 
DISL,ioos:station:DISL:MHPA:1,2008-03-03T14:00:00Z,30.6671,-87.9365,2.569,0.15,1111122 
DISL,ioos:station:DISL:MHPA:1,2008-03-03T14:30:00Z,30.6671,-87.9365,2.677,0.16,1111122 
DISL,ioos:station:DISL:MHPA:1,2008-03-03T15:00:00Z,30.6671,-87.9365,2.794,0.15,1111122 
DISL,ioos:station:DISL:MHPA:1,2008-03-03T15:30:00Z,30.6671,-87.9365,2.996,0.16,1111122 
DISL,ioos:station:DISL:MHPA:1,2008-03-03T16:00:00Z,30.6671,-87.9365,3.111,0.16,1111122 
DISL,ioos:station:DISL:MHPA:1,2008-03-03T16:30:00Z,30.6671,-87.9365,3.232,0.16,1111122 
DISL,ioos:station:DISL:MHPA:1,2008-03-03T17:00:00Z,30.6671,-87.9365,3.429,0.16,1111122 
DISL,ioos:station:DISL:MHPA:1,2008-03-03T17:30:00Z,30.6671,-87.9365,3.591,0.15,1111122 
DISL,ioos:station:DISL:MHPA:1,2008-03-03T18:00:00Z,30.6671,-87.9365,3.733,0.15,1111122 
DISL,ioos:station:DISL:MHPA:1,2008-03-03T18:30:00Z,30.6671,-87.9365,3.875,0.14,1111122 
DISL,ioos:station:DISL:MHPA:1,2008-03-03T19:00:00Z,30.6671,-87.9365,3.995,0.15,1111122 
DISL,ioos:station:DISL:MHPA:1,2008-03-03T19:30:00Z,30.6671,-87.9365,4.044,0.13,1111122 
DISL,ioos:station:DISL:MHPA:1,2008-03-03T20:00:00Z,30.6671,-87.9365,4.095,0.14,1111122 
DISL,ioos:station:DISL:MHPA:1,2008-03-03T20:30:00Z,30.6671,-87.9365,4.177,0.14,1111122 
DISL,ioos:station:DISL:MHPA:1,2008-03-03T21:00:00Z,30.6671,-87.9365,4.184,0.15,1111122 
DISL,ioos:station:DISL:MHPA:1,2008-03-03T21:30:00Z,30.6671,-87.9365,4.26,0.14,1111122 
DISL,ioos:station:DISL:MHPA:1,2008-03-03T22:00:00Z,30.6671,-87.9365,4.465,0.15,1111122 
DISL,ioos:station:DISL:MHPA:1,2008-03-03T22:30:00Z,30.6671,-87.9365,4.549,0.15,1111122 
DISL,ioos:station:DISL:MHPA:1,2008-03-03T23:00:00Z,30.6671,-87.9365,4.647,0.15,1111122 
DISL,ioos:station:DISL:MHPA:1,2008-03-03T23:30:00Z,30.6671,-87.9365,4.777,0.14,1111122 
DISL,ioos:station:DISL:MHPA:1,2008-03-04T00:00:00Z,30.6671,-87.9365,4.877,0.12,1111122 
DISL,ioos:station:DISL:MHPA:1,2008-03-04T00:30:00Z,30.6671,-87.9365,5.053,0.13,1111122 
DISL,ioos:station:DISL:MHPA:1,2008-03-04T01:00:00Z,30.6671,-87.9365,5.175,0.13,1111122 
DISL,ioos:station:DISL:MHPA:1,2008-03-04T01:30:00Z,30.6671,-87.9365,5.165,0.14,1111122 
DISL,ioos:station:DISL:MHPA:1,2008-03-04T02:00:00Z,30.6671,-87.9365,5.165,0.14,1111122 
DISL,ioos:station:DISL:MHPA:1,2008-03-04T02:30:00Z,30.6671,-87.9365,5.315,0.13,1111122 
DISL,ioos:station:DISL:MHPA:1,2008-03-04T03:00:00Z,30.6671,-87.9365,5.42,0.14,1111122 
DISL,ioos:station:DISL:MHPA:1,2008-03-04T03:30:00Z,30.6671,-87.9365,5.558,0.15,1111122 
DISL,ioos:station:DISL:MHPA:1,2008-03-04T04:00:00Z,30.6671,-87.9365,5.692,0.13,1111122 
DISL,ioos:station:DISL:MHPA:1,2008-03-04T04:30:00Z,30.6671,-87.9365,5.824,0.13,1111122 
DISL,ioos:station:DISL:MHPA:1,2008-03-04T05:00:00Z,30.6671,-87.9365,5.942,0.13,1111122 
DISL,ioos:station:DISL:MHPA:1,2008-03-04T05:30:00Z,30.6671,-87.9365,5.867,0.13,1111122 
DISL,ioos:station:DISL:MHPA:1,2008-03-04T06:00:00Z,30.6671,-87.9365,5.86,0.14,1111122 
DISL,ioos:station:DISL:MHPA:1,2008-03-04T06:30:00Z,30.6671,-87.9365,5.738,0.14,1111122 
DISL,ioos:station:DISL:MHPA:1,2008-03-04T07:00:00Z,30.6671,-87.9365,5.555,0.14,1111122 
DISL,ioos:station:DISL:MHPA:1,2008-03-04T07:30:00Z,30.6671,-87.9365,5.352,0.14,1111122 
DISL,ioos:station:DISL:MHPA:1,2008-03-04T08:00:00Z,30.6671,-87.9365,5.312,0.14,1111122 
DISL,ioos:station:DISL:MHPA:1,2008-03-04T08:30:00Z,30.6671,-87.9365,5.367,0.14,1111122 
DISL,ioos:station:DISL:MHPA:1,2008-03-04T09:00:00Z,30.6671,-87.9365,5.279,0.14,1111122 
DISL,ioos:station:DISL:MHPA:1,2008-03-04T09:30:00Z,30.6671,-87.9365,5.618,0.14,1111122 
DISL,ioos:station:DISL:MHPA:1,2008-03-04T10:00:00Z,30.6671,-87.9365,5.183,0.14,1111122 
DISL,ioos:station:DISL:MHPA:1,2008-03-04T10:30:00Z,30.6671,-87.9365,4.779,0.14,1111122 
DISL,ioos:station:DISL:MHPA:1,2008-03-04T11:00:00Z,30.6671,-87.9365,4.626,0.14,1111122 
DISL,ioos:station:DISL:MHPA:1,2008-03-04T11:30:00Z,30.6671,-87.9365,4.34,0.14,1111122 
DISL,ioos:station:DISL:MHPA:1,2008-03-04T12:00:00Z,30.6671,-87.9365,4.136,0.16,1111122 
DISL,ioos:station:DISL:MHPA:1,2008-03-04T12:30:00Z,30.6671,-87.9365,4.039,0.17,1111122 
DISL,ioos:station:DISL:MHPA:1,2008-03-04T13:00:00Z,30.6671,-87.9365,3.968,0.17,1111122 
DISL,ioos:station:DISL:MHPA:1,2008-03-04T13:30:00Z,30.6671,-87.9365,3.747,0.17,1111122 
DISL,ioos:station:DISL:MHPA:1,2008-03-04T14:00:00Z,30.6671,-87.9365,3.737,0.17,1111122 
DISL,ioos:station:DISL:MHPA:1,2008-03-04T14:30:00Z,30.6671,-87.9365,3.655,0.19,1111122 
DISL,ioos:station:DISL:MHPA:1,2008-03-04T15:00:00Z,30.6671,-87.9365,3.736,0.19,1111122 
DISL,ioos:station:DISL:MHPA:1,2008-03-04T15:30:00Z,30.6671,-87.9365,3.833,0.19,1111122 
DISL,ioos:station:DISL:MHPA:1,2008-03-04T16:00:00Z,30.6671,-87.9365,3.647,0.19,1111122 
DISL,ioos:station:DISL:MHPA:1,2008-03-04T16:30:00Z,30.6671,-87.9365,3.592,0.18,1111122 
DISL,ioos:station:DISL:MHPA:1,2008-03-04T17:00:00Z,30.6671,-87.9365,3.559,0.18,1111122 
DISL,ioos:station:DISL:MHPA:1,2008-03-04T17:30:00Z,30.6671,-87.9365,3.514,0.2,1111122 
DISL,ioos:station:DISL:MHPA:1,2008-03-04T18:00:00Z,30.6671,-87.9365,3.572,0.19,1111122 
DISL,ioos:station:DISL:MHPA:1,2008-03-04T18:30:00Z,30.6671,-87.9365,3.691,0.19,1111122 
DISL,ioos:station:DISL:MHPA:1,2008-03-04T19:00:00Z,30.6671,-87.9365,3.846,0.19,1111122 
DISL,ioos:station:DISL:MHPA:1,2008-03-04T19:30:00Z,30.6671,-87.9365,3.706,0.19,1111122 
DISL,ioos:station:DISL:MHPA:1,2008-03-04T20:00:00Z,30.6671,-87.9365,3.887,0.19,1111122 
DISL,ioos:station:DISL:MHPA:1,2008-03-04T20:30:00Z,30.6671,-87.9365,3.929,0.19,1111122 
DISL,ioos:station:DISL:MHPA:1,2008-03-04T21:00:00Z,30.6671,-87.9365,3.923,0.19,1111122 
DISL,ioos:station:DISL:MHPA:1,2008-03-04T21:30:00Z,30.6671,-87.9365,3.772,0.19,1111122 
DISL,ioos:station:DISL:MHPA:1,2008-03-04T22:00:00Z,30.6671,-87.9365,3.75,0.19,1111122 
DISL,ioos:station:DISL:MHPA:1,2008-03-04T22:30:00Z,30.6671,-87.9365,3.823,0.19,1111122 
DISL,ioos:station:DISL:MHPA:1,2008-03-04T23:00:00Z,30.6671,-87.9365,3.72,0.19,1111122 
DISL,ioos:station:DISL:MHPA:1,2008-03-04T23:30:00Z,30.6671,-87.9365,3.661,0.18,1111122 
DISL,ioos:station:DISL:MHPA:1,2008-03-05T00:00:00Z,30.6671,-87.9365,3.734,0.18,1111122 
DISL,ioos:station:DISL:MHPA:1,2008-03-05T00:30:00Z,30.6671,-87.9365,3.771,0.19,1111122 
DISL,ioos:station:DISL:MHPA:1,2008-03-05T01:00:00Z,30.6671,-87.9365,3.7,0.19,1111122 
DISL,ioos:station:DISL:MHPA:1,2008-03-05T01:30:00Z,30.6671,-87.9365,3.689,0.19,1111122 
DISL,ioos:station:DISL:MHPA:1,2008-03-05T02:00:00Z,30.6671,-87.9365,3.737,0.19,1111122 
DISL,ioos:station:DISL:MHPA:1,2008-03-05T02:30:00Z,30.6671,-87.9365,3.764,0.19,1111122 
DISL,ioos:station:DISL:MHPA:1,2008-03-05T03:00:00Z,30.6671,-87.9365,3.59,0.19,1111122 
DISL,ioos:station:DISL:MHPA:1,2008-03-05T03:30:00Z,30.6671,-87.9365,3.535,0.19,1111122 
DISL,ioos:station:DISL:MHPA:1,2008-03-05T04:00:00Z,30.6671,-87.9365,3.635,0.18,1111122 
DISL,ioos:station:DISL:MHPA:1,2008-03-05T04:30:00Z,30.6671,-87.9365,3.634,0.18,1111122 
DISL,ioos:station:DISL:MHPA:1,2008-03-05T05:00:00Z,30.6671,-87.9365,3.684,0.18,1111122 
DISL,ioos:station:DISL:MHPA:1,2008-03-05T05:30:00Z,30.6671,-87.9365,3.667,0.18,1111122 
DISL,ioos:station:DISL:MHPA:1,2008-03-05T06:00:00Z,30.6671,-87.9365,3.588,0.18,1111122 
DISL,ioos:station:DISL:MHPA:1,2008-03-05T06:30:00Z,30.6671,-87.9365,3.442,0.18,1111122 
DISL,ioos:station:DISL:MHPA:1,2008-03-05T07:00:00Z,30.6671,-87.9365,3.321,0.18,1111122 
DISL,ioos:station:DISL:MHPA:1,2008-03-05T07:30:00Z,30.6671,-87.9365,3.235,0.18,1111122 
DISL,ioos:station:DISL:MHPA:1,2008-03-05T08:00:00Z,30.6671,-87.9365,3.196,0.18,1111122 
DISL,ioos:station:DISL:MHPA:1,2008-03-05T08:30:00Z,30.6671,-87.9365,3.116,0.17,1111122 
DISL,ioos:station:DISL:MHPA:1,2008-03-05T09:00:00Z,30.6671,-87.9365,3.047,0.17,1111122 
DISL,ioos:station:DISL:MHPA:1,2008-03-05T09:30:00Z,30.6671,-87.9365,2.939,0.17,1111122 
DISL,ioos:station:DISL:MHPA:1,2008-03-05T10:00:00Z,30.6671,-87.9365,2.863,0.17,1111122 
DISL,ioos:station:DISL:MHPA:1,2008-03-05T10:30:00Z,30.6671,-87.9365,2.763,0.17,1111122 
DISL,ioos:station:DISL:MHPA:1,2008-03-05T11:00:00Z,30.6671,-87.9365,2.647,0.16,1111122 
DISL,ioos:station:DISL:MHPA:1,2008-03-05T11:30:00Z,30.6671,-87.9365,2.542,0.16,1111122 
DISL,ioos:station:DISL:MHPA:1,2008-03-05T12:00:00Z,30.6671,-87.9365,2.441,0.16,1111122 
DISL,ioos:station:DISL:MHPA:1,2008-03-05T12:30:00Z,30.6671,-87.9365,2.367,0.16,1111122 
DISL,ioos:station:DISL:MHPA:1,2008-03-05T13:00:00Z,30.6671,-87.9365,2.351,0.16,1111122 
DISL,ioos:station:DISL:MHPA:1,2008-03-05T13:30:00Z,30.6671,-87.9365,2.368,0.17,1111122 
DISL,ioos:station:DISL:MHPA:1,2008-03-05T14:00:00Z,30.6671,-87.9365,2.379,0.16,1111122 
DISL,ioos:station:DISL:MHPA:1,2008-03-05T14:30:00Z,30.6671,-87.9365,2.381,0.17,1111122 
DISL,ioos:station:DISL:MHPA:1,2008-03-05T15:00:00Z,30.6671,-87.9365,2.478,0.17,1111122 
DISL,ioos:station:DISL:MHPA:1,2008-03-05T15:30:00Z,30.6671,-87.9365,2.547,0.17,1111122 
DISL,ioos:station:DISL:MHPA:1,2008-03-05T16:00:00Z,30.6671,-87.9365,2.594,0.17,1111122 
DISL,ioos:station:DISL:MHPA:1,2008-03-05T16:30:00Z,30.6671,-87.9365,2.6,0.17,1111122 
DISL,ioos:station:DISL:MHPA:1,2008-03-05T17:00:00Z,30.6671,-87.9365,2.682,0.16,1111122 
DISL,ioos:station:DISL:MHPA:1,2008-03-05T17:30:00Z,30.6671,-87.9365,2.793,0.17,1111122 
DISL,ioos:station:DISL:MHPA:1,2008-03-05T18:00:00Z,30.6671,-87.9365,2.946,0.16,1111122 
DISL,ioos:station:DISL:MHPA:1,2008-03-05T18:30:00Z,30.6671,-87.9365,3.07,0.17,1111122 
DISL,ioos:station:DISL:MHPA:1,2008-03-05T19:00:00Z,30.6671,-87.9365,3.229,0.16,1111122 
DISL,ioos:station:DISL:MHPA:1,2008-03-05T19:30:00Z,30.6671,-87.9365,3.357,0.17,1111122 
DISL,ioos:station:DISL:MHPA:1,2008-03-05T20:00:00Z,30.6671,-87.9365,3.433,0.16,1111122 
DISL,ioos:station:DISL:MHPA:1,2008-03-05T20:30:00Z,30.6671,-87.9365,3.485,0.16,1111122 
DISL,ioos:station:DISL:MHPA:1,2008-03-05T21:00:00Z,30.6671,-87.9365,3.521,0.17,1111122 
DISL,ioos:station:DISL:MHPA:1,2008-03-05T21:30:00Z,30.6671,-87.9365,3.642,0.17,1111122 
DISL,ioos:station:DISL:MHPA:1,2008-03-05T22:00:00Z,30.6671,-87.9365,3.705,0.17,1111122 
DISL,ioos:station:DISL:MHPA:1,2008-03-05T22:30:00Z,30.6671,-87.9365,3.916,0.17,1111122 
DISL,ioos:station:DISL:MHPA:1,2008-03-05T23:00:00Z,30.6671,-87.9365,4.042,0.17,1111122 
DISL,ioos:station:DISL:MHPA:1,2008-03-05T23:30:00Z,30.6671,-87.9365,4.04,0.17,1111122 
DISL,ioos:station:DISL:MHPA:1,2008-03-06T00:00:00Z,30.6671,-87.9365,4.09,0.18,1111122 
DISL,ioos:station:DISL:MHPA:1,2008-03-06T00:30:00Z,30.6671,-87.9365,4.081,0.17,1111122 
DISL,ioos:station:DISL:MHPA:1,2008-03-06T01:00:00Z,30.6671,-87.9365,4.097,0.17,1111122 
DISL,ioos:station:DISL:MHPA:1,2008-03-06T01:30:00Z,30.6671,-87.9365,4.119,0.17,1111122 
DISL,ioos:station:DISL:MHPA:1,2008-03-06T02:00:00Z,30.6671,-87.9365,4.149,0.17,1111122 
DISL,ioos:station:DISL:MHPA:1,2008-03-06T02:30:00Z,30.6671,-87.9365,4.111,0.17,1111122 
DISL,ioos:station:DISL:MHPA:1,2008-03-06T03:00:00Z,30.6671,-87.9365,4.225,0.17,1111122 
DISL,ioos:station:DISL:MHPA:1,2008-03-06T03:30:00Z,30.6671,-87.9365,4.172,0.17,1111122 
DISL,ioos:station:DISL:MHPA:1,2008-03-06T05:00:00Z,30.6671,-87.9365,4.164,0.17,1111122 
DISL,ioos:station:DISL:MHPA:1,2008-03-06T05:30:00Z,30.6671,-87.9365,4.01,0.17,1111122 
DISL,ioos:station:DISL:MHPA:1,2008-03-06T06:00:00Z,30.6671,-87.9365,3.927,0.17,1111122 
DISL,ioos:station:DISL:MHPA:1,2008-03-06T06:30:00Z,30.6671,-87.9365,3.783,0.17,1111122 
DISL,ioos:station:DISL:MHPA:1,2008-03-06T07:00:00Z,30.6671,-87.9365,3.663,0.17,1111122 
DISL,ioos:station:DISL:MHPA:1,2008-03-06T07:30:00Z,30.6671,-87.9365,3.531,0.16,1111122 
DISL,ioos:station:DISL:MHPA:1,2008-03-06T08:00:00Z,30.6671,-87.9365,3.376,0.16,1111122 
DISL,ioos:station:DISL:MHPA:1,2008-03-06T08:30:00Z,30.6671,-87.9365,3.243,0.15,1111122 
DISL,ioos:station:DISL:MHPA:1,2008-03-06T09:00:00Z,30.6671,-87.9365,3.15,0.14,1111122 
DISL,ioos:station:DISL:MHPA:1,2008-03-06T09:30:00Z,30.6671,-87.9365,3.035,0.15,1111122 
DISL,ioos:station:DISL:MHPA:1,2008-03-06T10:00:00Z,30.6671,-87.9365,2.931,0.15,1111122 
DISL,ioos:station:DISL:MHPA:1,2008-03-06T10:30:00Z,30.6671,-87.9365,2.839,0.15,1111122 
DISL,ioos:station:DISL:MHPA:1,2008-03-06T11:00:00Z,30.6671,-87.9365,2.74,0.15,1111122 
DISL,ioos:station:DISL:MHPA:1,2008-03-06T11:30:00Z,30.6671,-87.9365,2.646,0.15,1111122 
DISL,ioos:station:DISL:MHPA:1,2008-03-06T12:00:00Z,30.6671,-87.9365,2.578,0.15,1111122 
DISL,ioos:station:DISL:MHPA:1,2008-03-06T12:30:00Z,30.6671,-87.9365,2.52,0.15,1111122 
DISL,ioos:station:DISL:MHPA:1,2008-03-06T13:00:00Z,30.6671,-87.9365,2.433,0.15,1111122 
DISL,ioos:station:DISL:MHPA:1,2008-03-06T13:30:00Z,30.6671,-87.9365,2.355,0.15,1111122 
DISL,ioos:station:DISL:MHPA:1,2008-03-06T14:00:00Z,30.6671,-87.9365,2.287,0.15,1111122 
DISL,ioos:station:DISL:MHPA:1,2008-03-06T14:30:00Z,30.6671,-87.9365,2.241,0.15,1111122 
DISL,ioos:station:DISL:MHPA:1,2008-03-06T15:00:00Z,30.6671,-87.9365,2.242,0.15,1111122 
DISL,ioos:station:DISL:MHPA:1,2008-03-06T15:30:00Z,30.6671,-87.9365,2.28,0.14,1111122 
DISL,ioos:station:DISL:MHPA:1,2008-03-06T16:00:00Z,30.6671,-87.9365,2.366,0.14,1111122 
DISL,ioos:station:DISL:MHPA:1,2008-03-06T16:30:00Z,30.6671,-87.9365,2.455,0.14,1111122 